Location: Carnières
(50.1682°N, 3.3474°E)
Time: 13:12:50
(UTC+00:00)

Cosmos 381 Rocket - Pass Details

Date: 23 May 2024
Orbit: 955 x 995 km, 74.0° (Epoch: 16 June)

Event Time Altitude Azimuth Distance (km) Brightness Sun altitude
Rises 00:28:58 0° 335° (NNW) 3,725 8.4 -18.5°
Reaches altitude 10° 00:31:32 10° 334° (NNW) 2,770 7.6 -18.4°
Maximum altitude 00:37:58 78° 249° (WSW) 1,019 4.5 -18.2°
Enters shadow 00:41:55 25° 167° (SSE) 1,882 5.5 -18.0°
